Location: USNO
(38.9242°N, 77.0663°W)
Time: 02:02:43
(UTC-04:00)

N. Korean satellite - Pass Details

Date: 11 October 2017
Orbit: 459 x 517 km, 97.2° (Epoch: 22 October)

Event Time Altitude Azimuth Distance (km) Brightness Sun altitude
Rises 18:58:27 0° 159° (SSE) 2,565 10.1 -5.3°
Reaches altitude 10° 19:00:33 10° 155° (SSE) 1,678 9.1 -5.7°
Maximum altitude 19:04:06 58° 76° (ENE) 571 6.6 -6.4°
Drops below altitude 10° 19:07:36 10° 357° (N) 1,658 9.3 -7.1°
Sets 19:09:40 0° 353° (N) 2,532 10.3 -7.5°
